Terminal Aerodrome Forecast
Issued by NWS Bismarck, ND

Home | Current Version | Previous Version | Graphics & Text | Print | Product List | Glossary On
Versions: 1 2 3 4 5 6 7 8 9 10 11 12 13
000
FTUS43 KBIS 212150 AAB
TAFISN
TAF AMD
KISN 212150Z 2122/2218 34016G24KT P6SM VCSH BKN090
     FM220100 33013G21KT P6SM BKN090
     FM220300 33009KT P6SM BKN090
     FM221600 36011G19KT P6SM BKN070=

USA.gov is the U.S. government's official web portal to all federal, state and local government web resources and services.